Radiation Dose at Monitoring Post of Fukushima Daini Nuclear Power Station
Date,Time,MP-1(microSv/h),MP-2(microSv/h),MP-3(microSv/h),MP-4(microSv/h),MP-5(microSv/h),MP-6(microSv/h),MP-7(microSv/h),Wind Direction,Wind Velocity(m/s),Rain
2018/01/28,00:00,0.310,0.191,0.316,0.307,0.278,0.162,0.098,north,4.2,No
2018/01/28,00:10,0.311,0.192,0.316,0.308,0.278,0.162,0.098,north,2.1,No
2018/01/28,00:20,0.311,0.191,0.317,0.307,0.278,0.161,0.099,north,0.9,No
2018/01/28,00:30,0.309,0.191,0.318,0.308,0.279,0.162,0.099,-,CALM,No
2018/01/28,00:40,0.310,0.191,0.316,0.306,0.277,0.162,0.098,south-southeast,1.2,No
2018/01/28,00:50,0.311,0.192,0.316,0.308,0.277,0.162,0.098,southwest,1.2,No
2018/01/28,01:00,0.310,0.192,0.317,0.307,0.278,0.161,0.098,west-northwest,2.6,No
2018/01/28,01:10,0.311,0.192,0.316,0.307,0.277,0.162,0.098,west-northwest,2.7,No
2018/01/28,01:20,0.310,0.191,0.317,0.306,0.279,0.161,0.099,west-northwest,2.0,No
2018/01/28,01:30,0.309,0.191,0.316,0.306,0.279,0.161,0.098,west-northwest,2.5,No
2018/01/28,01:40,0.311,0.190,0.317,0.308,0.279,0.162,0.098,west-northwest,0.8,No
2018/01/28,01:50,0.309,0.192,0.318,0.307,0.278,0.161,0.098,northwest,1.3,No
2018/01/28,02:00,0.310,0.191,0.315,0.307,0.277,0.161,0.098,north,1.2,No
2018/01/28,02:10,0.310,0.191,0.316,0.306,0.277,0.161,0.099,north-northwest,0.7,No
2018/01/28,02:20,0.309,0.190,0.317,0.307,0.277,0.161,0.098,north-northwest,0.6,No
2018/01/28,02:30,0.311,0.191,0.316,0.306,0.277,0.161,0.098,-,CALM,No
2018/01/28,02:40,0.311,0.191,0.315,0.305,0.278,0.161,0.099,north,1.3,No
2018/01/28,02:50,0.309,0.191,0.316,0.306,0.279,0.160,0.098,northwest,2.3,No
2018/01/28,03:00,0.311,0.191,0.317,0.306,0.277,0.161,0.098,north-northwest,3.2,No
2018/01/28,03:10,0.310,0.190,0.318,0.308,0.279,0.161,0.099,north-northwest,3.6,No
2018/01/28,03:20,0.311,0.191,0.317,0.306,0.279,0.162,0.099,northwest,4.9,No
2018/01/28,03:30,0.311,0.191,0.316,0.306,0.279,0.162,0.098,northwest,6.6,No
2018/01/28,03:40,0.310,0.191,0.316,0.307,0.279,0.162,0.098,north-northwest,7.3,No
2018/01/28,03:50,0.311,0.190,0.316,0.306,0.278,0.161,0.097,northwest,7.7,No
2018/01/28,04:00,0.310,0.191,0.317,0.307,0.278,0.161,0.098,north-northwest,9.5,No
2018/01/28,04:10,0.310,0.190,0.316,0.306,0.277,0.162,0.099,north-northwest,8.6,No
2018/01/28,04:20,0.309,0.191,0.316,0.306,0.277,0.162,0.098,north-northwest,8.8,No
2018/01/28,04:30,0.309,0.192,0.318,0.307,0.277,0.161,0.098,north-northwest,6.3,No
2018/01/28,04:40,0.311,0.192,0.316,0.306,0.278,0.161,0.098,north,8.1,No
2018/01/28,04:50,0.311,0.192,0.317,0.306,0.279,0.161,0.097,north,4.9,No
2018/01/28,05:00,0.312,0.191,0.317,0.307,0.278,0.161,0.098,north-northwest,6.0,No
2018/01/28,05:10,0.310,0.192,0.317,0.306,0.277,0.161,0.098,north-northwest,5.7,No
2018/01/28,05:20,0.311,0.191,0.316,0.305,0.278,0.161,0.098,north,3.8,No
2018/01/28,05:30,0.309,0.191,0.317,0.307,0.278,0.162,0.098,north-northeast,3.3,No
2018/01/28,05:40,0.310,0.191,0.316,0.306,0.278,0.161,0.098,north,4.5,No
2018/01/28,05:50,0.311,0.192,0.317,0.307,0.277,0.161,0.099,north,4.9,No
2018/01/28,06:00,0.310,0.191,0.317,0.306,0.277,0.160,0.098,north,4.7,No
2018/01/28,06:10,0.309,0.191,0.317,0.307,0.277,0.162,0.098,north,4.9,No
2018/01/28,06:20,0.310,0.193,0.317,0.306,0.276,0.161,0.098,north,5.3,No
2018/01/28,06:30,0.310,0.191,0.317,0.306,0.277,0.161,0.098,north,5.3,No
2018/01/28,06:40,0.309,0.191,0.316,0.306,0.278,0.161,0.099,north,5.1,No
2018/01/28,06:50,0.310,0.191,0.317,0.306,0.278,0.161,0.098,north,4.3,No
2018/01/28,07:00,0.310,0.191,0.316,0.308,0.278,0.160,0.097,north,3.3,No
2018/01/28,07:10,0.309,0.191,0.318,0.307,0.278,0.161,0.098,north,3.8,No
2018/01/28,07:20,0.309,0.192,0.317,0.306,0.278,0.161,0.099,north-northeast,2.7,No
2018/01/28,07:30,0.310,0.191,0.316,0.305,0.280,0.161,0.098,north-northeast,3.1,No
2018/01/28,07:40,0.310,0.191,0.317,0.306,0.277,0.162,0.099,north-northeast,2.7,No
2018/01/28,07:50,0.309,0.190,0.316,0.306,0.279,0.161,0.098,north-northeast,1.6,No
2018/01/28,08:00,0.310,0.191,0.316,0.306,0.277,0.161,0.098,north,1.7,No
2018/01/28,08:10,0.309,0.191,0.317,0.306,0.277,0.160,0.099,north-northwest,1.0,No
2018/01/28,08:20,0.310,0.192,0.317,0.307,0.279,0.161,0.098,north,1.3,No
2018/01/28,08:30,0.310,0.191,0.315,0.307,0.277,0.161,0.097,north-northwest,1.3,No
2018/01/28,08:40,0.310,0.191,0.317,0.306,0.278,0.161,0.099,west-northwest,0.9,No
2018/01/28,08:50,0.311,0.191,0.315,0.305,0.278,0.161,0.098,-,CALM,No
2018/01/28,09:00,0.309,0.191,0.316,0.306,0.279,0.161,0.099,east-northeast,1.2,No
2018/01/28,09:10,0.310,0.191,0.316,0.307,0.279,0.161,0.098,-,CALM,No
2018/01/28,09:20,0.310,0.190,0.316,0.306,0.277,0.161,0.098,east-northeast,0.6,No
2018/01/28,09:30,0.310,0.191,0.316,0.307,0.278,0.161,0.097,east,0.9,No
2018/01/28,09:40,0.310,0.192,0.316,0.306,0.278,0.161,0.098,east-northeast,1.2,No
2018/01/28,09:50,0.309,0.191,0.316,0.307,0.278,0.161,0.098,-,CALM,No
2018/01/28,10:00,0.310,0.190,0.315,0.305,0.278,0.161,0.098,southeast,1.0,No
2018/01/28,10:10,0.310,0.192,0.316,0.306,0.279,0.161,0.099,south,1.2,No
2018/01/28,10:20,0.309,0.191,0.318,0.306,0.278,0.162,0.099,south-southeast,1.6,No
2018/01/28,10:30,0.311,0.191,0.318,0.306,0.278,0.161,0.099,southeast,1.3,No
2018/01/28,10:40,0.309,0.191,0.316,0.307,0.278,0.162,0.097,southeast,1.4,No
2018/01/28,10:50,0.308,0.191,0.316,0.307,0.278,0.161,0.097,southeast,1.0,No
2018/01/28,11:00,0.310,0.191,0.316,0.308,0.279,0.161,0.098,east-southeast,2.1,No
2018/01/28,11:10,0.310,0.191,0.317,0.305,0.279,0.161,0.098,east-southeast,1.6,No
2018/01/28,11:20,0.308,0.191,0.318,0.308,0.279,0.161,0.098,east-southeast,2.0,No
2018/01/28,11:30,0.309,0.191,0.317,0.308,0.279,0.162,0.098,southeast,1.4,No
2018/01/28,11:40,0.310,0.190,0.316,0.307,0.278,0.161,0.099,east-southeast,1.4,No
2018/01/28,11:50,0.309,0.191,0.317,0.306,0.278,0.161,0.099,southeast,0.9,No
2018/01/28,12:00,0.310,0.192,0.315,0.308,0.279,0.161,0.098,east-southeast,2.5,No
2018/01/28,12:10,0.310,0.192,0.317,0.309,0.279,0.162,0.098,southeast,3.0,No
2018/01/28,12:20,0.310,0.191,0.316,0.307,0.279,0.163,0.099,south-southeast,3.2,No
2018/01/28,12:30,0.309,0.192,0.317,0.307,0.279,0.162,0.099,southeast,3.2,No
2018/01/28,12:40,0.311,0.192,0.316,0.308,0.280,0.161,0.098,southeast,2.2,No
2018/01/28,12:50,0.309,0.190,0.317,0.307,0.280,0.162,0.098,south-southeast,3.1,No
2018/01/28,13:00,0.309,0.192,0.316,0.308,0.278,0.162,0.098,south,2.8,No
2018/01/28,13:10,0.311,0.192,0.316,0.307,0.281,0.162,0.098,south-southeast,3.6,No
2018/01/28,13:20,0.310,0.191,0.317,0.308,0.279,0.162,0.099,south,1.8,No
2018/01/28,13:30,0.310,0.193,0.318,0.308,0.280,0.162,0.098,south-southeast,2.8,No
2018/01/28,13:40,0.311,0.193,0.316,0.308,0.281,0.162,0.099,south,5.8,No
2018/01/28,13:50,0.311,0.192,0.316,0.307,0.279,0.163,0.098,south,5.3,No
2018/01/28,14:00,0.311,0.192,0.317,0.308,0.279,0.161,0.099,south,6.4,No
2018/01/28,14:10,0.312,0.192,0.317,0.308,0.280,0.162,0.098,south-southwest,5.5,No
2018/01/28,14:20,0.312,0.191,0.317,0.309,0.280,0.163,0.099,south-southwest,5.9,No
2018/01/28,14:30,0.311,0.193,0.317,0.309,0.282,0.163,0.099,south-southwest,4.6,No
2018/01/28,14:40,0.311,0.192,0.318,0.308,0.280,0.163,0.098,south-southwest,5.5,No
2018/01/28,14:50,0.311,0.192,0.318,0.308,0.282,0.162,0.098,south,6.1,No
2018/01/28,15:00,0.312,0.193,0.317,0.308,0.280,0.162,0.099,south-southwest,6.5,No
2018/01/28,15:10,0.311,0.193,0.318,0.309,0.280,0.163,0.099,south-southwest,4.0,No
2018/01/28,15:20,0.311,0.192,0.319,0.308,0.281,0.163,0.099,south-southwest,6.8,No
2018/01/28,15:30,0.312,0.193,0.318,0.308,0.281,0.163,0.099,south,4.5,No
2018/01/28,15:40,0.313,0.192,0.319,0.310,0.281,0.162,0.099,south,4.6,No
2018/01/28,15:50,0.311,0.192,0.318,0.310,0.280,0.163,0.100,south,4.0,No
2018/01/28,16:00,0.312,0.192,0.318,0.309,0.281,0.163,0.099,south,6.1,No
2018/01/28,16:10,0.313,0.192,0.319,0.309,0.282,0.163,0.099,south,6.3,No
2018/01/28,16:20,0.312,0.193,0.319,0.311,0.280,0.163,0.099,south-southwest,7.6,No
2018/01/28,16:30,0.314,0.192,0.318,0.309,0.280,0.164,0.099,south-southwest,8.4,No
2018/01/28,16:40,0.312,0.193,0.319,0.309,0.280,0.162,0.099,south,6.5,No
2018/01/28,16:50,0.313,0.194,0.319,0.308,0.282,0.162,0.099,south,5.5,No
2018/01/28,17:00,0.314,0.192,0.319,0.309,0.282,0.164,0.099,south,2.4,No
2018/01/28,17:10,0.314,0.192,0.318,0.310,0.281,0.162,0.099,south,2.0,No
2018/01/28,17:20,0.312,0.192,0.318,0.309,0.281,0.163,0.098,south,3.0,No
2018/01/28,17:30,0.314,0.194,0.318,0.309,0.281,0.163,0.100,south-southwest,3.7,No
2018/01/28,17:40,0.314,0.194,0.318,0.309,0.282,0.163,0.099,south-southwest,2.0,No
2018/01/28,17:50,0.313,0.194,0.318,0.309,0.280,0.163,0.100,south-southwest,2.6,No
2018/01/28,18:00,0.313,0.193,0.317,0.308,0.282,0.163,0.099,south-southwest,2.0,No
2018/01/28,18:10,0.313,0.194,0.319,0.310,0.282,0.163,0.100,southwest,1.6,No
2018/01/28,18:20,0.314,0.195,0.318,0.308,0.281,0.163,0.100,south,0.8,No
2018/01/28,18:30,0.314,0.194,0.319,0.309,0.281,0.162,0.099,south-southwest,0.7,No
2018/01/28,18:40,0.313,0.193,0.318,0.309,0.280,0.163,0.100,-,CALM,No
2018/01/28,18:50,0.314,0.194,0.317,0.309,0.283,0.162,0.099,southwest,1.0,No
2018/01/28,19:00,0.314,0.194,0.319,0.310,0.282,0.163,0.099,southwest,2.0,No
2018/01/28,19:10,0.314,0.193,0.320,0.309,0.280,0.164,0.099,southwest,3.1,No
2018/01/28,19:20,0.314,0.193,0.319,0.309,0.282,0.163,0.100,south-southwest,2.4,No
2018/01/28,19:30,0.314,0.194,0.318,0.311,0.282,0.163,0.100,south-southwest,2.9,No
2018/01/28,19:40,0.315,0.194,0.318,0.309,0.282,0.163,0.100,south-southwest,3.3,No
2018/01/28,19:50,0.314,0.193,0.320,0.310,0.279,0.163,0.100,southwest,3.9,No
2018/01/28,20:00,0.313,0.194,0.320,0.308,0.283,0.163,0.099,southwest,3.1,No
2018/01/28,20:10,0.315,0.194,0.320,0.309,0.281,0.163,0.099,south-southwest,3.4,No
2018/01/28,20:20,0.314,0.194,0.319,0.309,0.281,0.164,0.099,south-southwest,3.7,No
2018/01/28,20:30,0.314,0.195,0.318,0.309,0.281,0.162,0.100,south-southwest,3.8,No
2018/01/28,20:40,0.315,0.194,0.320,0.309,0.281,0.163,0.099,south-southwest,3.8,No
2018/01/28,20:50,0.313,0.194,0.321,0.310,0.283,0.164,0.099,south-southwest,4.2,No
2018/01/28,21:00,0.315,0.193,0.320,0.310,0.282,0.163,0.100,south-southwest,5.8,No
2018/01/28,21:10,0.315,0.194,0.320,0.309,0.281,0.162,0.100,south-southwest,4.1,No
2018/01/28,21:20,0.316,0.195,0.321,0.309,0.282,0.163,0.100,south-southwest,4.9,No
2018/01/28,21:30,0.315,0.193,0.321,0.310,0.283,0.163,0.099,south-southwest,6.1,No
2018/01/28,21:40,0.314,0.195,0.320,0.310,0.284,0.164,0.100,south-southwest,4.7,No
2018/01/28,21:50,0.314,0.194,0.320,0.310,0.281,0.163,0.099,southwest,4.5,No
2018/01/28,22:00,0.316,0.194,0.320,0.309,0.282,0.164,0.100,southwest,4.6,No
2018/01/28,22:10,0.315,0.194,0.321,0.310,0.282,0.163,0.100,southwest,3.4,No
2018/01/28,22:20,0.315,0.194,0.322,0.309,0.281,0.163,0.100,southwest,6.5,No
2018/01/28,22:30,0.315,0.195,0.320,0.310,0.281,0.163,0.100,southwest,7.0,No
2018/01/28,22:40,0.315,0.194,0.320,0.310,0.282,0.163,0.101,west-southwest,7.2,No
2018/01/28,22:50,0.317,0.194,0.320,0.310,0.282,0.164,0.100,southwest,8.2,No
2018/01/28,23:00,0.316,0.194,0.321,0.310,0.282,0.164,0.100,southwest,10.0,No
2018/01/28,23:10,0.314,0.194,0.321,0.310,0.282,0.164,0.100,southwest,9.6,No
2018/01/28,23:20,0.314,0.194,0.320,0.310,0.282,0.164,0.100,southwest,7.9,No
2018/01/28,23:30,0.316,0.194,0.320,0.310,0.283,0.163,0.099,southwest,8.2,No
2018/01/28,23:40,0.314,0.193,0.319,0.310,0.281,0.164,0.099,southwest,8.4,No
2018/01/28,23:50,0.315,0.194,0.320,0.309,0.283,0.163,0.100,southwest,8.1,No
